[[{"header":{"parameterUnit":"m.s-1","parameterCategory":1,"la1":30.2991,"la2":30.254,"lo1":-89.0895,"lo2":-89.0444,"dy":0.0017,"dx":0.0017,"nx":28,"ny":28,"refTime":"2025-03-27T21:00:00:Z","depth":0,"parameterNumber":2,"parameterNumberName":"U-component_of_WINDS"},"data":[0,0,0,0,0,0,0,0,0,0,0,0,0,0,0,0,0,0,0,0,0,0,0,0,0,0,0,0,0,0,0,0,0,0,0,0,0,0,0,0,0,0,0,0,0,0,0,0,0,0,0,0,0,0,0,0,0,0,-5.9065,-5.9068,0,-5.9282,-5.9285,-5.9287,-5.9326,-5.9324,-5.9322,-5.932,-5.954,-5.9547,-5.9555,0,0,0,0,0,0,0,0,0,0,0,0,0,-5.8683,-5.869,-5.9065,-5.9068,-5.9071,-5.9282,-5.9285,-5.9288,-5.9326,-5.9324,-5.9322,-5.9319,-5.9537,-5.9546,-5.9555,0,0,0,0,0,0,0,0,0,0,0,0,0,-5.8869,-5.8692,-5.9065,-5.9115,-5.9122,-5.9281,-5.9285,-5.9289,-5.9326,-5.9324,-5.9321,-5.9318,-5.9534,-5.9545,-5.9556,-5.968,0,0,-5.9591,-5.9596,0,0,0,0,0,0,0,0,-5.8858,-5.8883,-5.9105,-5.9112,-5.912,-5.9274,-5.9231,-5.942,-5.9327,-5.9249,-5.932,-5.9317,-5.9453,-5.9471,-5.9518,-5.969,-5.97,-5.9592,-5.9599,-5.9604,-5.9607,0,0,0,0,0,0,0,-5.8846,-5.8874,-5.9151,-5.9108,-5.9117,-5.9127,-5.915,-5.9267,-5.9363,-5.9255,-5.9259,-5.9284,-5.9457,-5.9507,-5.9523,-5.9703,-5.9592,-5.9602,-5.9609,-5.9613,-5.9989,-5.9992,0,0,0,0,0,0,-5.8824,-5.8863,-5.9144,-5.9157,-5.898,-5.9136,-5.9162,-5.9227,-5.9362,-5.938,-5.9286,-5.9285,-5.9489,-5.951,-5.9531,-5.9685,-5.9604,-5.9614,-5.9621,-5.9986,-5.999,-5.9994,0,0,0,0,0,0,-5.8815,-5.8849,-5.9135,-5.9011,-5.9049,-5.9145,-5.9218,-5.9233,-5.9283,-5.9386,-5.9403,-5.9319,-5.9488,-5.9515,-5.9643,-5.9693,-5.9619,-5.9629,-5.9982,-5.9987,-5.9992,-5.9992,0,0,0,0,0,0,-5.8804,-5.8845,-5.8893,-5.9012,-5.9055,-5.9244,-5.9221,-5.9239,-5.9302,-5.9303,-5.9421,-5.9438,-5.9488,-5.9626,-5.9654,-5.9707,-5.9638,-5.9978,-5.9985,-5.999,-5.9988,-5.9997,-6.0004,0,0,0,0,0,-5.8791,-5.8884,-5.8895,-5.8929,-5.9117,-5.9247,-5.9271,-5.9327,-5.9306,-5.9355,-5.9422,-5.9434,-5.9684,-5.9639,-5.9671,-5.9728,-5.9975,-5.9983,-5.999,-5.9985,-5.9995,-6.0004,0,0,0,0,0,0,-5.8766,-5.89,-5.8914,-5.9049,-5.9136,-5.9253,-5.9316,-5.9336,-5.943,-5.9426,-5.9491,-5.9517,-5.9642,-5.9698,-5.9646,-5.9855,-5.9828,-5.9842,-5.9813,-5.9824,-5.9831,-5.9814,-5.9648,0,0,0,0,0,-5.8777,-5.8872,-5.8983,-5.9091,-5.9135,-5.9218,-5.9276,-5.9312,-5.9405,-5.9441,-5.9517,-5.9606,-5.9705,-5.9768,-5.9864,-5.9998,-6.0024,-6.0053,-6.0061,-6.0067,-6.0077,-6.0153,-6.0167,-6.0017,-6.0017,-6.0017,0,0,-5.8799,-5.8884,-5.8939,-5.9089,-5.916,-5.9257,-5.9248,-5.935,-5.9422,-5.9457,-5.9582,-5.9641,-5.9745,-5.9877,-5.9938,-5.9927,-6.0125,-6.0076,-6.008,-6.0087,-6.0161,-6.0175,-6.0188,-6.0022,-6.0021,-6.0021,0,0,-5.8888,-5.8962,-5.906,-5.9134,-5.9243,-5.9299,-5.9322,-5.9437,-5.9478,-5.9606,-5.9634,-5.9721,-5.9889,-5.9962,-6.0021,-6.0141,-6.0156,-6.0171,-6.021,-6.0283,-6.0295,-6.0305,-6.0347,-6.0362,-6.0182,-6.0182,-6.0182,0,-5.8901,-5.9047,-5.9108,-5.921,-5.9274,-5.9313,-5.9413,-5.9481,-5.9615,-5.9659,-5.9646,-5.9859,-5.9932,-6.0081,-6.0111,-6.0158,-6.0186,-6.0156,-6.0288,-6.03,-6.0311,-6.0351,-6.0367,-6.0183,-6.0183,-6.0183,-6.0183,0,-5.9058,-5.9159,-5.9226,-5.9357,-5.943,-5.9529,-5.9605,-5.9672,-5.9703,-5.9759,-5.9889,-5.9979,-6.0094,-6.0133,-6.0163,-6.0287,-6.0277,-6.0276,-6.0249,-6.0325,-6.0364,-6.038,-6.0184,-6.0184,-6.0184,-6.0183,0,0,-5.9133,-5.9299,-5.9322,-5.9383,-5.9509,-5.9588,-5.9691,-5.9805,-5.986,-5.9954,-6.0041,-6.0184,-6.0184,-6.0251,-6.0291,-6.0355,-6.0444,-6.0346,-6.0349,-6.0359,-6.0586,-6.0584,-6.0602,-6.0457,-6.046,-6.0463,-6.0577,0,-5.9236,-5.942,-5.9479,-5.9633,-5.9727,-5.9767,-5.9857,-5.9943,-6.0,-6.0089,-6.0152,-6.0252,-6.0245,-6.0286,-6.0351,-6.0419,-6.049,-6.0412,-6.0537,-6.0541,-6.0507,-6.0622,-6.0621,-6.0724,-6.0593,-6.0595,-6.0597,0,-5.9379,-5.9476,-5.9639,-5.9754,-5.9796,-5.9876,-5.9986,-6.0071,-6.017,-6.0207,-6.0284,-6.0319,-6.0428,-6.0398,-6.0549,-6.0494,-6.055,-6.0591,-6.0597,-6.0608,-6.0571,-6.0635,-6.0758,-6.0773,-6.0622,-6.062,-6.0619,0,-5.9416,-5.9588,-5.9708,-5.9758,-5.9896,-5.9951,-6.0011,-6.0108,-6.0174,-6.0271,-6.0314,-6.0422,-6.048,-6.0563,-6.0627,-6.0599,-6.0772,-6.0747,-6.0804,-6.0803,-6.0836,-6.0832,-6.0968,-6.0876,-6.0876,-6.0875,-6.0875,0,-5.9523,-5.962,-5.9726,-5.9799,-5.9911,-5.9979,-6.0087,-6.0149,-6.0236,-6.0323,-6.0364,-6.0444,-6.0525,-6.0615,-6.0666,-6.0783,-6.0809,-6.0842,-6.0853,-6.0837,-6.0832,-6.0871,-6.0865,-6.088,-6.0879,-6.0878,-6.0877,0,-5.9581,-5.9656,-5.9789,-5.991,-5.9943,-6.0019,-6.0123,-6.0196,-6.0256,-6.0365,-6.0394,-6.0488,-6.0597,-6.067,-6.0809,-6.0843,-6.097,-6.0981,-6.0936,-6.0941,-6.0994,-6.0987,-6.1157,-6.1183,-6.1075,-6.1076,-6.1077,0,-5.9643,-5.9719,-5.9849,-5.991,-5.9971,-6.0069,-6.0137,-6.0208,-6.0277,-6.0398,-6.0456,-6.0569,-6.0662,-6.0835,-6.0915,-6.1022,-6.1035,-6.1088,-6.1051,-6.1032,-6.1034,-6.1028,-6.1035,-6.1092,-6.1093,-6.1094,-6.1094,0,-5.9744,-5.9778,-5.9874,-5.9985,-6.0065,-6.0155,-6.0245,-6.0292,-6.0379,-6.0455,-6.0568,-6.064,-6.0784,-6.0895,-6.101,-6.1072,-6.1097,-6.1106,-6.1124,-6.1106,-6.1076,-6.1092,-6.0949,-6.11,-6.11,-6.1099,-6.1099,-6.1099,-5.9805,-5.9875,-5.9978,-6.0084,-6.016,-6.0244,-6.0319,-6.0389,-6.0485,-6.0608,-6.0645,-6.0762,-6.0862,-6.102,-6.1084,-6.1177,-6.1171,-6.1198,-6.1205,-6.121,-6.1209,-6.1064,-6.1198,-6.1198,-6.1198,-6.1198,-6.1198,0,-5.9907,-5.9976,-6.0073,-6.0199,-6.0283,-6.0303,-6.0404,-6.0473,-6.0576,-6.0667,-6.0759,-6.089,-6.0998,-6.1089,-6.1201,-6.1258,-6.1272,-6.1284,-6.1279,-6.1293,-6.1208,-6.118,-6.1271,-6.1271,-6.1271,-6.1271,-6.1271,-6.1271,-5.9969,-6.0089,-6.0136,-6.0294,-6.0363,-6.0479,-6.0535,-6.0613,-6.0686,-6.083,-6.0921,-6.098,-6.1072,-6.1191,-6.1292,-6.1316,-6.1354,-6.1363,-6.1389,-6.1308,-6.1299,-6.1291,-6.1265,-6.1372,-6.1372,-6.1466,-6.1467,-6.1468]},{"header":{"parameterUnit":"m.s-1","parameterCategory":1,"la1":30.2991,"la2":30.254,"lo1":-89.0895,"lo2":-89.0444,"dy":0.0017,"dx":0.0017,"nx":28,"ny":28,"refTime":"2025-03-27T21:00:00:Z","depth":0,"parameterNumber":3,"parameterNumberName":"V-component_of_WINDS"},"data":[0,0,0,0,0,0,0,0,0,0,0,0,0,0,0,0,0,0,0,0,0,0,0,0,0,0,0,0,0,0,0,0,0,0,0,0,0,0,0,0,0,0,0,0,0,0,0,0,0,0,0,0,0,0,0,0,0,0,3.2582,3.2583,0,3.2668,3.2669,3.267,3.2704,3.2704,3.2704,3.2703,3.2789,3.2791,3.2793,0,0,0,0,0,0,0,0,0,0,0,0,0,3.2446,3.2448,3.2582,3.2583,3.2584,3.2668,3.2669,3.267,3.2704,3.2704,3.2704,3.2703,3.2788,3.2791,3.2794,0,0,0,0,0,0,0,0,0,0,0,0,0,3.2516,3.2449,3.2581,3.2611,3.2614,3.2667,3.2669,3.267,3.2704,3.2704,3.2704,3.2703,3.2787,3.279,3.2794,3.2823,0,0,3.2805,3.2807,0,0,0,0,0,0,0,0,3.2512,3.2521,3.2606,3.2609,3.2613,3.2675,3.2652,3.2721,3.2704,3.267,3.2703,3.2703,3.2751,3.2757,3.2774,3.2827,3.2831,3.2806,3.2808,3.2809,3.281,0,0,0,0,0,0,0,3.2507,3.2517,3.2616,3.2607,3.2611,3.262,3.2629,3.2666,3.2711,3.2673,3.2676,3.2686,3.2753,3.2771,3.2776,3.2832,3.2806,3.2809,3.2811,3.2813,3.2916,3.2916,0,0,0,0,0,0,3.2497,3.2513,3.2613,3.2618,3.2561,3.2622,3.2633,3.2655,3.2711,3.2719,3.2686,3.2687,3.2764,3.2772,3.278,3.2819,3.2809,3.2813,3.2815,3.2915,3.2916,3.2917,0,0,0,0,0,0,3.2494,3.2506,3.2609,3.2566,3.258,3.2625,3.265,3.2657,3.2675,3.272,3.2729,3.2696,3.2764,3.2774,3.2813,3.2822,3.2815,3.2818,3.2915,3.2916,3.2916,3.2897,0,0,0,0,0,0,3.249,3.2505,3.2516,3.2566,3.2582,3.2641,3.265,3.2659,3.2682,3.2684,3.2732,3.2739,3.2765,3.2807,3.2817,3.2827,3.2821,3.2914,3.2915,3.2916,3.2897,3.2897,3.2897,0,0,0,0,0,3.2485,3.2506,3.2516,3.2528,3.2598,3.2642,3.2651,3.2681,3.2682,3.2694,3.2724,3.2738,3.282,3.2811,3.2822,3.2834,3.2914,3.2915,3.2916,3.2897,3.2897,3.2897,0,0,0,0,0,0,3.2453,3.2513,3.2525,3.2563,3.2597,3.2648,3.2663,3.2679,3.2713,3.2714,3.2749,3.2759,3.2795,3.2818,3.2807,3.2866,3.2868,3.2871,3.285,3.285,3.285,3.2844,3.2824,0,0,0,0,0,3.2451,3.2483,3.2532,3.2561,3.2578,3.2618,3.2638,3.2658,3.2695,3.2709,3.2742,3.2776,3.281,3.2831,3.2865,3.2901,3.2913,3.2915,3.2915,3.2915,3.2917,3.294,3.2942,3.2921,3.2921,3.2921,0,0,3.2446,3.2482,3.2499,3.2555,3.2584,3.2617,3.2629,3.2662,3.2686,3.2714,3.2753,3.2778,3.2819,3.2857,3.2876,3.2877,3.2926,3.2916,3.2916,3.2918,3.2942,3.2944,3.2945,3.2921,3.2921,3.2921,0,0,3.2453,3.2483,3.2511,3.2541,3.2586,3.2613,3.262,3.2669,3.2687,3.2727,3.275,3.2779,3.2836,3.2865,3.2887,3.2909,3.2923,3.2919,3.2919,3.2941,3.2943,3.2944,3.2953,3.2956,3.2921,3.2921,3.2921,0,3.244,3.249,3.2523,3.2556,3.2581,3.2609,3.2639,3.2666,3.2718,3.2735,3.2737,3.2811,3.284,3.2887,3.2893,3.2909,3.2919,3.2913,3.294,3.2942,3.2944,3.2953,3.2956,3.292,3.292,3.292,3.292,0,3.2473,3.2508,3.2525,3.2578,3.2604,3.2635,3.2673,3.2696,3.2715,3.2742,3.2784,3.282,3.2863,3.2876,3.2893,3.2925,3.2926,3.2933,3.2936,3.2945,3.2954,3.2958,3.2919,3.2919,3.292,3.292,0,0,3.2461,3.2534,3.254,3.2565,3.2618,3.2645,3.2678,3.2722,3.2741,3.2777,3.2806,3.2856,3.2864,3.2889,3.2911,3.293,3.2948,3.2936,3.2937,3.2938,3.2987,3.2982,3.2985,3.2958,3.2959,3.2959,3.2984,0,3.2476,3.2536,3.2569,3.2616,3.2649,3.2678,3.2707,3.2743,3.277,3.2801,3.2831,3.2866,3.2873,3.2889,3.291,3.2941,3.2958,3.294,3.2985,3.2986,3.2975,3.299,3.2983,3.3005,3.2988,3.2988,3.2989,0,3.2501,3.2539,3.259,3.2642,3.2657,3.2682,3.2726,3.2756,3.2798,3.2816,3.2846,3.2868,3.2905,3.2905,3.2956,3.2943,3.2964,3.2982,3.2984,3.2989,3.2988,3.2996,3.3012,3.3016,3.2995,3.2994,3.2994,0,3.2488,3.2552,3.2592,3.2612,3.2673,3.2691,3.2717,3.2759,3.2784,3.2822,3.2839,3.288,3.2903,3.2935,3.2968,3.2965,3.3016,3.3018,3.3033,3.3032,3.3042,3.3041,3.3062,3.3054,3.3054,3.3054,3.3054,0,3.2502,3.2532,3.2587,3.2611,3.2647,3.2684,3.2718,3.2746,3.2784,3.2815,3.2842,3.287,3.2912,3.2945,3.2971,3.301,3.302,3.3036,3.3043,3.3034,3.3032,3.3048,3.3048,3.3055,3.3055,3.3055,3.3054,0,3.2493,3.2531,3.2576,3.2632,3.2647,3.267,3.2718,3.2743,3.2772,3.2811,3.2822,3.2868,3.2909,3.2945,3.2999,3.3016,3.3057,3.3065,3.3043,3.3047,3.3059,3.3058,3.3092,3.3099,3.3086,3.3086,3.3086,0,3.2499,3.2523,3.2583,3.2606,3.2632,3.2669,3.2696,3.2734,3.2761,3.2812,3.2831,3.2875,3.2912,3.2976,3.3014,3.3056,3.3065,3.3074,3.3071,3.3063,3.3066,3.3065,3.3068,3.3074,3.3074,3.3074,3.3074,0,3.2506,3.2525,3.2563,3.2608,3.264,3.2677,3.2714,3.2732,3.2778,3.2806,3.285,3.2878,3.2935,3.2978,3.3025,3.3052,3.3071,3.3075,3.308,3.3072,3.3059,3.3067,3.3044,3.3073,3.3073,3.3073,3.3073,3.3073,3.2506,3.253,3.2577,3.2619,3.2652,3.2687,3.2714,3.2748,3.2786,3.2836,3.2856,3.2901,3.2945,3.301,3.3037,3.3073,3.3076,3.3083,3.3086,3.3087,3.3086,3.3053,3.3081,3.3081,3.3081,3.3081,3.3081,0,3.2516,3.2548,3.2587,3.264,3.2673,3.269,3.2734,3.276,3.28,3.284,3.2877,3.2928,3.2971,3.3013,3.3058,3.3079,3.3089,3.3089,3.3088,3.3095,3.308,3.3071,3.3081,3.3081,3.3081,3.3081,3.3081,3.3081,3.2525,3.2568,3.2592,3.2652,3.2684,3.2729,3.2753,3.2786,3.2819,3.2875,3.2912,3.294,3.2981,3.303,3.3071,3.3082,3.3098,3.3096,3.311,3.3096,3.3095,3.3095,3.3087,3.3099,3.3099,3.3122,3.3122,3.3122]}]]